Weather History for CWWL - December, 2012

Change the Weather History Date:

Monday, December 17, 2012

  Actual Average Record
Temperature  
Mean Temperature 36 °F -  
Max Temperature 39 °F - - ()
Min Temperature 34 °F - - ()
Degree Days  
Heating Degree Days 28    
Moisture  
Dew Point 30 °F    
Average Humidity 76    
Maximum Humidity 90    
Minimum Humidity 53    
Precipitation  
Precipitation 0.00 in - - ()
Sea Level Pressure  
Sea Level Pressure 29.39 in    
Wind  
Wind Speed 11 mph ()    
Max Wind Speed 18 mph    
Max Gust Speed 25 mph    
T = Trace of Precipitation, MM = Missing Value Source: Averaged Metar Reports

Daily Weather History Graph

Daily Weather History Graph

Search for Another Location

Airport or City:

Trip Planner

Search our weather history database for the weather conditions in past years. The results will help you decide how hot, cold, wet, or windy it might be!

Date:

Astronomy

Dec. 17, 2012 Rise Set
Actual Time 8:54 AM PST 4:23 PM PST
Civil Twilight 8:11 AM PST 5:06 PM PST
Nautical Twilight 7:25 AM PST 5:52 PM PST
Astronomical Twilight 6:43 AM PST 6:34 PM PST
Moon 11:28 AM PST (12/17) 10:35 PM PST (12/17)
Length of Visible Light 8h 55m
Length of Day
7h 29m
Waxing Crescent, 26% of the Moon is Illuminated
Dec 17
Waxing Crescent
Dec 19
First Quarter
Dec 28
Full
Jan 4
Last Quarter
Jan 11
New

Hourly Weather History & Observations

Time (PST) Temp. Windchill Dew Point Humidity Pressure Visibility Wind Dir Wind Speed Gust Speed Precip Events Conditions
12:00 AM 36.9 °F 28.7 °F 33.1 °F 86% 29.21 in - NNE 12.7 mph - N/A   Unknown
1:00 AM 38.1 °F 31.7 °F 31.1 °F 76% 29.21 in - NNW 9.2 mph - N/A   Unknown
2:00 AM 34.3 °F 24.2 °F 31.8 °F 90% 29.22 in - North 16.1 mph - N/A   Unknown
3:00 AM 38.1 °F 28.8 °F 30.4 °F 74% 29.23 in - NW 17.3 mph - N/A   Unknown
4:00 AM 38 °F - 31 °F 69% 29.24 in - NW 18.4 mph - -  
4:00 AM 38.5 °F 28.9 °F 31.5 °F 76% 29.24 in - NW 18.4 mph - N/A   Unknown
5:00 AM 34.7 °F 24.0 °F 32.0 °F 90% 29.25 in - NW 18.4 mph 25.3 mph N/A   Unknown
6:00 AM 37.6 °F 28.4 °F 31.5 °F 79% 29.26 in - NNW 16.1 mph - N/A   Unknown
8:00 AM 37.6 °F 28.8 °F 28.8 °F 70% 29.31 in - WNW 15.0 mph - N/A   Unknown
9:00 AM 37.8 °F 29.4 °F 27.7 °F 67% 29.34 in - WNW 13.8 mph - N/A   Unknown
10:00 AM 38 °F - 27 °F 53% 29.36 in - West 9.2 mph - -  
10:00 AM 38.1 °F 31.7 °F 26.8 °F 64% 29.36 in - West 9.2 mph - N/A   Unknown
11:00 AM 38.5 °F 32.1 °F 27.3 °F 64% 29.39 in - West 9.2 mph - N/A   Unknown
12:00 PM 37.8 °F 30.7 °F 25.9 °F 62% 29.41 in - West 10.4 mph - N/A   Unknown
1:00 PM 38.5 °F 31.6 °F 29.3 °F 70% 29.42 in - WSW 10.4 mph - N/A   Unknown
5:00 PM 36.3 °F 32.5 °F 27.5 °F 70% 29.49 in - SSE 4.6 mph - N/A   Unknown
6:00 PM 36.5 °F 32.7 °F 30.9 °F 80% 29.51 in - SE 4.6 mph - N/A   Unknown
7:00 PM 36.0 °F 30.3 °F 31.6 °F 84% 29.53 in - SSE 6.9 mph - N/A   Unknown
8:00 PM 34.7 °F 28.8 °F 31.3 °F 87% 29.55 in - SSE 6.9 mph - N/A   Unknown
9:00 PM 35.4 °F 29.7 °F 31.1 °F 84% 29.57 in - SSE 6.9 mph - N/A   Unknown
10:00 PM 35 °F - 32 °F 83% 29.59 in - SE 6.9 mph - -  
10:00 PM 35.1 °F 29.3 °F 31.8 °F 88% 29.59 in - SE 6.9 mph - N/A   Unknown
11:00 PM 35.1 °F 28.6 °F 32.0 °F 89% 29.60 in - SSE 8.1 mph - N/A   Unknown